Flag for U.S.A. Weather past 2 weeks in Sidney, Montana, U.S.A.

Now
25 °F

Mostly cloudy.


Feels Like: 11 °F
Forecast: 15 / 28 °F
Wind: 17 mph from Northwest

Location: Sidney-Richland

Current Time: Dec 22, 2014 at 8:11:16 PM

Latest Report: Dec 22, 2014 at 7:35 PM


Visibility: 10 mi

Pressure: 29.89 "Hg

Humidity: 86%

Dew point: 21 °F

Location of SidneyLocation

Historic Weather in Sidney — Graph

°F

Sidney temperature yesterday

Maximum temperature yesterday: 37 °F (at 12:55 PM)
Minimum temperature yesterday: 16 °F (at 6:35 AM)
Average temperature yesterday: 28 °F

Past Weeks' High & Low Weather Summary

 TemperatureHumidityPressure
High48 °F (Dec 12, 1:35 PM)100% (Dec 9, 7:55 AM)30.35 "Hg (Dec 9, 7:55 AM)
Low16 °F (Dec 19, 11:35 PM)49% (Dec 20, 1:35 PM)29.35 "Hg (Dec 21, 1:55 PM)
Average28 °F84%29.94 "Hg
* Reported Dec 7 6:15 PM — Dec 22 6:55 PM, Sidney, Weather by CustomWeather, © 2014

Note: Actual official high and low records may vary slightly from our data, if they occured in-between our weather recording intervals... More about our weather records

Advertising

Sidney weather history for previous 24 hours

 ConditionsComfort  
Time TempWeatherWind HumidityBarometerVisibility
6:55 PM
Dec 22
25 °FMostly cloudy.15 mph86%29.88 "Hg9 mi
6:35 PM25 °FMostly cloudy.15 mph86%29.87 "Hg10 mi
6:15 PM25 °FOvercast.15 mph86%29.86 "Hg8 mi
5:55 PM27 °FOvercast.15 mph80%29.85 "Hg10 mi
5:35 PM27 °FOvercast.17 mph80%29.84 "Hg10 mi
5:15 PM27 °FMostly cloudy.16 mph80%29.83 "Hg10 mi
4:55 PM27 °FMostly cloudy.18 mph80%29.81 "Hg10 mi
4:35 PM27 °FMostly cloudy.16 mph80%29.80 "Hg10 mi
4:15 PM27 °FOvercast.15 mph80%29.79 "Hg10 mi
3:55 PM27 °FOvercast.16 mph80%29.78 "Hg10 mi
3:35 PM27 °FOvercast.17 mph74%29.76 "Hg10 mi
3:15 PM27 °FOvercast.16 mph80%29.75 "Hg10 mi
2:55 PM27 °FOvercast.17 mph80%29.74 "Hg10 mi
2:35 PM27 °FOvercast.15 mph80%29.73 "Hg10 mi
2:15 PM27 °FOvercast.16 mph80%29.72 "Hg7 mi
1:55 PM27 °FOvercast.18 mph80%29.71 "Hg3 mi
1:35 PM27 °FOvercast.15 mph80%29.70 "Hg10 mi
1:15 PM27 °FMore clouds than sun.17 mph80%29.69 "Hg10 mi
12:55 PM27 °FPartly sunny.17 mph80%29.68 "Hg10 mi
12:35 PM27 °FPartly sunny.15 mph80%29.68 "Hg10 mi
12:15 PM27 °FMostly cloudy.16 mph80%29.67 "Hg10 mi
11:55 AM27 °FPartly sunny.14 mph80%29.67 "Hg10 mi
11:35 AM27 °FPassing clouds.21 mph80%29.66 "Hg10 mi
11:15 AM27 °FSunny.18 mph80%29.66 "Hg3 mi
10:55 AM27 °FSunny.16 mph80%29.65 "Hg2 mi
10:35 AM27 °FSunny.15 mph80%29.65 "Hg2 mi
10:15 AM27 °FSunny.17 mph80%29.64 "Hg1 mi
9:55 AM27 °FSunny.17 mph80%29.63 "Hg1 mi
9:35 AM27 °FSunny.14 mph80%29.62 "Hg1 mi
9:15 AM27 °FPartly sunny.17 mph80%29.61 "Hg1 mi
8:55 AM27 °FSunny.17 mph80%29.61 "Hg1 mi
8:35 AM27 °FSunny.22 mph80%29.60 "Hg2 mi
8:15 AM27 °FSunny.20 mph80%29.59 "Hg2 mi
7:55 AM27 °FSunny.18 mph80%29.59 "Hg1 mi
7:35 AM27 °FClear.20 mph86%29.58 "Hg1 mi
7:15 AM27 °FClear.20 mph86%29.58 "Hg1 mi
6:55 AM27 °FClear.21 mph86%29.57 "Hg1 mi
6:35 AM27 °FClear.16 mph86%29.57 "Hg1 mi
6:15 AM27 °FClear.15 mph86%29.57 "Hg1 mi
5:55 AM27 °FClear.16 mph93%29.56 "Hg1 mi
5:35 AM28 °FClear.13 mph86%29.56 "Hg1 mi
5:15 AM28 °FClear.15 mph86%29.55 "Hg1 mi
4:55 AM28 °FPassing clouds.15 mph86%29.54 "Hg2 mi
4:35 AM28 °FOvercast.17 mph86%29.54 "Hg2 mi
4:15 AM28 °FMostly cloudy.16 mph86%29.53 "Hg2 mi
3:55 AM30 °FMostly cloudy.20 mph86%29.52 "Hg3 mi
3:35 AM30 °FMostly cloudy.18 mph86%29.52 "Hg2 mi
3:15 AM30 °FOvercast.14 mph93%29.51 "Hg2 mi
2:55 AM30 °FOvercast.15 mph93%29.50 "Hg3 mi
2:35 AM32 °FMostly cloudy.17 mph87%29.50 "Hg3 mi
2:15 AM34 °FMostly cloudy.15 mph81%29.49 "Hg2 mi
1:55 AM34 °FOvercast.16 mph87%29.48 "Hg4 mi
1:35 AM34 °FMostly cloudy.18 mph87%29.47 "Hg5 mi
1:15 AM36 °FMostly cloudy.16 mph81%29.46 "Hg10 mi
12:55 AM36 °FOvercast.16 mph87%29.45 "Hg10 mi
12:35 AM36 °FPassing clouds.14 mph87%29.45 "Hg10 mi
12:15 AM36 °FPassing clouds.13 mph87%29.44 "Hg10 mi
11:55 PM
Dec 21
36 °FMostly cloudy.15 mph87%29.44 "Hg10 mi
11:35 PM36 °FOvercast.15 mph93%29.44 "Hg10 mi
11:15 PM36 °FOvercast.17 mph93%29.43 "Hg10 mi
10:55 PM36 °FOvercast.17 mph93%29.42 "Hg10 mi
10:35 PM37 °FOvercast.16 mph87%29.41 "Hg10 mi
10:15 PM37 °FMostly cloudy.15 mph87%29.41 "Hg10 mi
9:55 PM37 °FOvercast.10 mph87%29.41 "Hg10 mi
9:35 PM34 °FOvercast.No wind100%29.41 "Hg5 mi
8:55 PM36 °FOvercast.No wind93%29.41 "Hg4 mi
8:35 PM36 °FMostly cloudy.No wind93%29.40 "Hg4 mi
8:15 PM34 °FMostly cloudy.No wind100%29.40 "Hg3 mi
Weather by CustomWeather, © 2014

See weather overviewHow to use our weather pages